Location: Consuma
(43.7833°N, 11.5833°E)
Time: 02:23:07
(UTC+00:00)

Cosmos 1315 Rocket - Pass Details

Date: 17 February 2020
Orbit: 530 x 568 km, 81.2° (Epoch: 09 April)

Event Time Altitude Azimuth Distance (km) Brightness Sun altitude
Rises 05:40:18 0° 176° (S) 2,693 6.5 -6.1°
Reaches altitude 10° 05:42:29 10° 171° (S) 1,799 5.7 -5.8°
Maximum altitude 05:46:19 50° 96° (E) 691 3.9 -5.1°
Drops below altitude 10° 05:50:09 10° 21° (NNE) 1,797 5.6 -4.4°
Sets 05:52:20 0° 16° (NNE) 2,689 6.4 -4.0°
